Location: Newark
(47.5833°N, 8.1500°E)
Time: 20:54:20
(UTC+00:00)

Tiros 1 despin weight - All Passes

Search period start: 28 October 2020 00:00
Search period end: 07 November 2020 00:00
Orbit: 594 x 641 km, 48.2° (Epoch: 27 October)

Date Brightness Start Highest point End Pass type
(mag) Time Alt. Az. Time Alt. Az. Time Alt. Az.
28 Oct - 00:10:52 10° SW 00:15:05 41° SSE 00:19:16 10° E night (unlit)
28 Oct - 01:51:58 10° W 01:56:27 89° N 02:00:53 10° E visible
28 Oct - 03:33:37 10° W 03:38:04 89° SSW 03:42:30 10° ESE visible
28 Oct - 05:15:17 10° W 05:19:23 39° SSW 05:23:30 10° SE visible
28 Oct - 22:47:11 10° S 22:50:25 20° SE 22:53:38 10° E night (unlit)
29 Oct - 00:26:59 10° WSW 00:31:24 61° SSE 00:35:47 10° ENE night (unlit)
29 Oct - 02:08:27 10° W 02:12:56 82° N 02:17:22 10° E visible
29 Oct - 03:50:05 10° WNW 03:54:30 71° SSW 03:58:54 10° ESE visible
29 Oct - 05:32:00 10° W 05:35:35 24° SW 05:39:09 10° SSE visible
29 Oct - 23:02:34 10° SSW 23:06:34 32° SSE 23:10:32 10° E night (unlit)
30 Oct - 00:43:19 10° WSW 00:47:48 82° SSE 00:52:15 10° E night (unlit)
30 Oct - 02:24:57 10° W 02:29:25 84° N 02:33:51 10° E visible
30 Oct - 04:06:34 10° W 04:10:51 50° SSW 04:15:08 10° SE visible
30 Oct - 05:49:19 10° WSW 05:51:40 14° SW 05:53:59 10° S daylight
30 Oct - 21:39:37 10° S 21:42:00 14° SE 21:44:23 10° ESE night (unlit)
30 Oct - 23:18:28 10° SW 23:22:49 49° SSE 23:27:08 10° E night (unlit)
31 Oct - 00:59:46 10° W 01:04:16 85° N 01:08:43 10° E night (unlit)
31 Oct - 02:41:25 10° W 02:45:53 83° SSW 02:50:18 10° ESE visible
31 Oct - 04:23:10 10° W 04:27:07 32° SSW 04:31:03 10° SSE visible
31 Oct - 21:54:26 10° SSW 21:58:05 24° SE 22:01:42 10° E night (unlit)
31 Oct - 23:34:41 10° WSW 23:39:10 71° SSE 23:43:37 10° ENE night (unlit)
01 Nov - 01:16:16 10° W 01:20:46 82° N 01:25:12 10° E night (unlit)
01 Nov - 02:57:53 10° WNW 03:02:17 62° SSW 03:06:39 10° ESE visible
01 Nov - 04:40:04 10° W 04:43:15 20° SW 04:46:26 10° S visible
01 Nov - 22:10:04 10° SW 22:14:16 39° SSE 22:18:26 10° E night (unlit)
01 Nov - 23:51:05 10° WSW 23:55:36 89° S 00:00:04 10° E night (unlit)
02 Nov - 01:32:45 10° W 01:37:15 88° N 01:41:41 10° E night (unlit)
02 Nov - 03:14:25 10° W 03:18:36 42° SSW 03:22:46 10° SE visible
02 Nov - 04:58:10 10° WSW 04:59:16 11° SW 05:00:24 10° SSW visible
02 Nov - 20:46:32 10° S 20:49:38 18° SE 20:52:42 10° E night (unlit)
02 Nov - 22:26:07 10° SW 22:30:34 58° SSE 22:34:59 10° E night (unlit)
03 Nov - 00:07:34 10° W 00:12:05 82° N 00:16:33 10° E night (unlit)
03 Nov - 01:49:13 10° WNW 01:53:41 75° SSW 01:58:06 10° ESE night (unlit)
03 Nov - 03:31:06 10° W 03:34:49 26° SW 03:38:30 10° SSE visible
03 Nov - 21:01:48 10° SSW 21:05:46 30° SE 21:09:41 10° E night (unlit)
03 Nov - 22:42:25 10° WSW 22:46:58 79° SSE 22:51:26 10° E night (unlit)
04 Nov - 00:24:04 10° W 00:28:35 83° N 00:33:02 10° E night (unlit)
04 Nov - 02:05:42 10° W 02:10:03 54° SSW 02:14:22 10° SE night (unlit)
04 Nov - 03:48:15 10° W 03:50:54 16° SW 03:53:32 10° S visible
04 Nov - 19:39:07 10° SSE 19:41:13 13° SE 19:43:18 10° ESE night (unlit)
04 Nov - 21:17:38 10° SW 21:22:00 46° SSE 21:26:19 10° E night (unlit)
04 Nov - 22:58:52 10° W 23:03:25 86° N 23:07:54 10° E night (unlit)
05 Nov - 00:40:32 10° W 00:45:03 86° SSW 00:49:30 10° ESE night (unlit)
05 Nov - 02:22:16 10° W 02:26:20 35° SSW 02:30:20 10° SE night (unlit)
05 Nov - 19:53:42 10° SSW 19:57:16 23° SE 20:00:48 10° E night (unlit)
05 Nov - 21:33:48 10° WSW 21:38:20 67° SSE 21:42:48 10° ENE night (unlit)
05 Nov - 23:15:22 10° W 23:19:54 82° N 23:24:23 10° E night (unlit)
06 Nov - 00:57:01 10° WNW 01:01:28 66° SSW 01:05:52 10° ESE night (unlit)
06 Nov - 02:39:05 10° W 02:42:29 22° SW 02:45:50 10° SSE night (unlit)
06 Nov - 20:09:15 10° SW 20:13:27 36° SSE 20:17:36 10° E night (unlit)
06 Nov - 21:50:10 10° WSW 21:54:45 86° S 21:59:16 10° E night (unlit)
06 Nov - 23:31:51 10° W 23:36:23 87° N 23:40:51 10° E night (unlit)
